sat.trackr.live / text

‹ back to catalog

CAS500-4

NORAD 69869 · 2026-156A

PAYLOAD ACTIVE UNKNOWN

§ Identity

Operator
Country
SKOR
Launch date
2026-07-07
Launch site
AFWTR
Launch vehicle
Mass (kg)
RCS (m²)

External: N2YO · Heavens-Above · Gunter

§ Orbital elements

Epoch: 2026-09-19T13:43:06.700512Z

Period
102.80 min
Inclination
98.9888°
Eccentricity
0.0011824
Mean motion
14.00808477 rev/d
Perigee alt
882.4 km
Apogee alt
899.6 km
Semi-major
7,269.1 km
B*
1.9940e-4
RAAN
161.5535°
Arg perigee
0.8672°
Mean anomaly
359.2512°
Rev number
1,039

§ Raw data

CAS500-41 69869U 26156A   26262.57160533  .00000254  00000+0  19940-3 0  99922 69869  98.9888 161.5535 0011824   0.8672 359.2512 14.00808477 10394

JSON: /api/v1/satellites/69869 · /tle

For live sub-satellite position, see the globe view (requires WebGL).

§ Visibility from observer

Set your observer location to see the next 7 days of passes ≥ 10°. The values pass through the URL so the page stays shareable.

No JS? Fill the form by hand. The geolocation button needs JavaScript.